Zurück zum Katalog

NOAA 16 DEB

AktivPO
NORAD 41212·DEBRIS·🇺🇸 United States

Gestartet Sep 21, 2000 von Vandenberg Space Force Base

Loading…

Nächste Überflüge (nächste 24 Stunden)

TLE

AktuellSource: Space-Track

Epoche: Sep 14, 2026, 06:09 UTC

1 41212U 00055DR  26257.25679079  .00003210  00000-0  10492-2 0  9991
2 41212  98.9537  50.6137 0014587  50.1414 310.1053 14.39219923558021

Verfolge NOAA 16 DEB in Echtzeit mit AllMySat

Download on the App Store